TimeEST,TemperatureF,Dew PointF,Humidity,Sea Level PressureIn,VisibilityMPH,Wind Direction,Wind SpeedMPH,Gust SpeedMPH,PrecipitationIn,Events,Conditions,WindDirDegrees,DateUTC
12:53 AM,35.1,30.9,85,30.23,10.0,Calm,Calm,-,N/A,,Overcast,0,2012-11-28 05:53:00
1:53 AM,35.1,30.0,82,30.21,10.0,Calm,Calm,-,N/A,,Overcast,0,2012-11-28 06:53:00
2:53 AM,35.1,30.0,82,30.25,10.0,Calm,Calm,-,N/A,,Overcast,0,2012-11-28 07:53:00
3:53 AM,34.0,28.9,82,30.23,10.0,Calm,Calm,-,N/A,,Overcast,0,2012-11-28 08:53:00
4:53 AM,32.0,28.9,88,30.25,10.0,Calm,Calm,-,N/A,,Mostly Cloudy,0,2012-11-28 09:53:00
5:53 AM,32.0,30.0,92,30.25,6.0,Calm,Calm,-,N/A,,Overcast,0,2012-11-28 10:53:00
6:53 AM,30.9,28.9,92,30.25,3.0,Calm,Calm,-,N/A,,Overcast,0,2012-11-28 11:53:00
7:08 AM,30.2,28.4,93,30.23,2.0,Calm,Calm,-,N/A,,Overcast,0,2012-11-28 12:08:00
7:15 AM,30.2,28.4,93,30.23,10.0,Calm,Calm,-,N/A,,Overcast,0,2012-11-28 12:15:00
7:53 AM,30.9,30.0,96,30.27,10.0,Calm,Calm,-,N/A,,Overcast,0,2012-11-28 12:53:00
8:53 AM,33.1,30.0,89,30.27,7.0,Calm,Calm,-,N/A,,Scattered Clouds,0,2012-11-28 13:53:00
9:53 AM,37.0,25.0,62,30.27,10.0,Calm,Calm,-,N/A,,Clear,0,2012-11-28 14:53:00
10:53 AM,39.0,21.9,50,30.25,10.0,Calm,Calm,-,N/A,,Clear,0,2012-11-28 15:53:00
11:53 AM,39.9,19.9,45,30.23,10.0,Variable,4.6,-,N/A,,Clear,0,2012-11-28 16:53:00
12:53 PM,39.0,21.0,49,30.22,10.0,WNW,10.4,16.1,N/A,,Scattered Clouds,290,2012-11-28 17:53:00
1:53 PM,37.9,21.0,51,30.21,10.0,North,-9999.0,-,N/A,,Overcast,0,2012-11-28 18:53:00
2:53 PM,37.9,21.0,51,30.22,10.0,NW,11.5,-,N/A,,Overcast,310,2012-11-28 19:53:00
3:53 PM,37.0,19.9,50,30.23,10.0,WNW,9.2,-,N/A,,Clear,300,2012-11-28 20:53:00
4:53 PM,35.1,19.9,54,30.25,10.0,NW,3.5,-,N/A,,Clear,310,2012-11-28 21:53:00
5:53 PM,32.0,21.0,64,30.27,10.0,Calm,Calm,-,N/A,,Clear,0,2012-11-28 22:53:00
6:53 PM,28.9,21.9,75,30.27,10.0,Calm,Calm,-,N/A,,Clear,0,2012-11-28 23:53:00
7:53 PM,30.0,21.9,72,30.27,10.0,Calm,Calm,-,N/A,,Clear,0,2012-11-29 00:53:00
8:53 PM,27.0,21.9,81,30.28,10.0,Calm,Calm,-,N/A,,Clear,0,2012-11-29 01:53:00
9:53 PM,26.1,21.0,81,30.29,9.0,Calm,Calm,-,N/A,,Clear,0,2012-11-29 02:53:00
10:53 PM,26.1,21.0,81,30.31,9.0,Calm,Calm,-,N/A,,Clear,0,2012-11-29 03:53:00
11:53 PM,27.0,21.0,78,30.31,10.0,Calm,Calm,-,N/A,,Clear,0,2012-11-29 04:53:00